DateTimeUTC,F1_A11,F1_S11,BsB_S11,BsG_S11,BsR_S11,BbsB_S11,BbsG_S11,BbsR_S11,BaB_A11,BaG_A11,BaR_A11,Tu_S11,T_S11,Uu_S11,U_S11,P_S11,T1_A11
2021-03-23T12:00:00Z,00000200,21000000,,,,,,,0000.33,0000.13,-000.24,16.1,23.6,,00.0,0626.3,30.9
2021-03-23T12:01:00Z,00000200,21000000,,,,,,,-000.17,0000.09,0000.28,16.1,23.7,,00.0,0626.3,30.9
2021-03-23T12:02:00Z,00000200,21000000,,,,,,,0000.50,0000.50,-000.07,16.1,23.7,,00.0,0626.3,30.9
2021-03-23T12:03:00Z,00000200,61000000,,,,,,,-000.02,-000.17,0000.17,16.1,23.7,,00.0,0626.3,30.9
2021-03-23T12:04:00Z,00000200,41000000,0001.23,0000.64,0000.55,-000.25,0000.15,0000.01,0000.57,0000.66,0000.65,16.5,23.6,,00.0,0627.2,30.9
2021-03-23T12:05:00Z,00000200,01000000,0000.94,0000.73,0000.60,0000.00,0000.04,-000.13,0001.21,0000.68,0000.46,16.6,23.6,,00.0,0627.3,30.9
2021-03-23T12:06:00Z,00000200,01000000,0000.89,0000.63,0000.38,0000.11,0000.29,0000.20,-000.23,0000.19,-000.15,16.7,23.6,,00.0,0627.3,30.9
2021-03-23T12:07:00Z,00000200,01000000,0001.27,0000.60,0000.32,-000.30,0000.19,0000.25,0000.70,0000.51,0000.86,16.7,23.6,,00.0,0627.3,30.9
2021-03-23T12:08:00Z,00000200,01000000,0000.98,0000.98,0000.46,-000.16,0000.02,-000.08,-000.16,-000.14,-000.32,16.8,23.6,,00.0,0627.3,30.9
2021-03-23T12:09:00Z,00000200,01000000,0000.87,0001.04,0000.53,0000.55,0000.35,0000.03,0000.55,0000.59,0000.16,16.9,23.7,,00.0,0627.3,31.0
2021-03-23T12:10:00Z,00000200,01000000,0000.82,0000.55,0000.40,0000.09,-000.07,0000.18,0000.39,0000.65,0000.79,16.9,23.7,,00.0,0627.3,31.0
2021-03-23T12:11:00Z,00000200,01000000,0001.30,0000.93,0000.48,-000.01,0000.20,0000.05,0000.45,0000.47,0000.15,17.0,23.7,,00.0,0627.3,31.0
2021-03-23T12:12:00Z,00000200,01000000,0001.33,0000.45,0000.51,0000.13,0000.21,0000.17,0000.06,0000.03,0000.14,17.0,23.8,,00.0,0627.3,31.0
2021-03-23T12:13:00Z,00000200,01000000,0001.03,0001.09,0000.41,-000.19,0000.05,0000.27,0000.31,0000.07,-000.13,17.0,23.8,,00.0,0627.3,31.0
2021-03-23T12:14:00Z,00000200,01000000,0001.14,0000.79,0000.33,0000.11,0000.18,0000.07,0000.54,0000.36,0000.35,17.0,23.7,,00.0,0627.3,30.9
2021-03-23T12:15:00Z,00000200,01000000,0001.68,0000.80,0000.52,-000.06,-000.02,0000.06,0000.25,0000.11,0000.31,16.9,23.7,,00.0,0627.3,30.9
2021-03-23T12:16:00Z,00000200,01000000,0001.25,0000.65,0000.41,-000.03,0000.21,0000.02,0000.41,0000.61,0000.17,16.8,23.7,,00.0,0627.3,30.9
2021-03-23T12:17:00Z,00000200,01000000,0000.99,0000.70,0000.37,-000.27,0000.24,-000.10,0000.33,0000.20,0000.02,16.8,23.7,,00.0,0627.3,30.9
2021-03-23T12:18:00Z,00000200,01000000,0001.17,0000.80,0000.44,0000.12,0000.09,0000.07,0000.78,0000.62,0000.70,16.7,23.7,,00.0,0627.2,30.9
2021-03-23T12:19:00Z,00000200,01000000,0001.01,0000.78,0000.39,-000.24,0000.07,-000.21,-000.22,0000.01,0000.06,16.7,23.6,,00.0,0627.3,30.9
2021-03-23T12:20:00Z,00000200,01000000,0001.22,0000.94,0000.56,-000.09,0000.03,0000.02,0001.08,0000.76,0000.40,16.6,23.6,,00.0,0627.3,30.9
2021-03-23T12:21:00Z,00000200,01000000,0001.61,0000.56,0000.40,0000.54,0000.32,-000.04,0000.16,0000.13,-000.05,16.6,23.6,,00.0,0627.3,30.9
2021-03-23T12:22:00Z,00000200,01000000,0000.85,0000.79,0000.58,0000.05,-000.14,-000.08,0000.22,-000.19,0000.22,16.5,23.6,,00.0,0627.3,30.9
2021-03-23T12:23:00Z,00000200,01000000,0000.93,0000.98,0000.40,-000.18,0000.00,0000.00,0000.24,0000.75,0000.06,16.5,23.6,,00.0,0627.3,30.9
2021-03-23T12:24:00Z,00000200,01000000,0001.14,0000.89,0000.18,-000.24,0000.06,0000.29,0000.75,0000.36,0000.94,16.4,23.5,,00.0,0627.3,30.9
2021-03-23T12:25:00Z,00000200,01000000,0000.69,0000.72,0000.62,-000.22,0000.23,0000.22,0000.41,0000.47,0000.20,16.4,23.5,,00.0,0627.3,30.9
2021-03-23T12:26:00Z,00000200,01000000,0001.62,0000.88,0000.64,0000.02,0000.08,0000.05,0000.58,0000.67,0000.70,16.5,23.5,,00.0,0627.3,30.9
2021-03-23T12:27:00Z,00000200,01000000,0001.24,0000.72,0000.25,-000.29,0000.16,0000.04,0000.50,0000.47,0000.17,16.5,23.5,,00.0,0627.3,30.9
2021-03-23T12:28:00Z,00000200,01000000,0000.77,0000.82,0000.32,-000.26,0000.17,0000.16,0000.28,0000.23,0000.20,16.5,23.5,,00.0,0627.3,30.9
2021-03-23T12:29:00Z,00000200,01000000,0000.64,0000.90,0000.30,0000.02,0000.27,-000.03,0000.45,0000.65,0000.10,16.6,23.5,,00.0,0627.3,30.9
2021-03-23T12:30:00Z,00000200,01000000,0001.15,0000.77,0000.51,0000.06,0000.03,-000.05,0000.57,0000.35,0000.33,16.6,23.5,,00.0,0627.3,30.9
2021-03-23T12:31:00Z,00000200,01000000,0001.01,0000.82,0000.45,0000.16,0000.18,0000.10,0000.16,0000.20,0000.20,16.7,23.5,,00.0,0627.3,30.9
2021-03-23T12:32:00Z,00000200,01000000,0003.91,0003.20,0003.23,0000.86,0000.76,0000.68,0028.35,0024.74,0018.31,16.6,23.5,00.1,00.1,0627.4,30.9
2021-03-23T12:33:00Z,00000200,01000000,0001.15,0000.96,0000.75,-000.43,0000.26,-000.03,-011.95,-010.63,-007.49,16.6,23.5,00.8,00.5,0627.3,30.9
2021-03-23T12:34:00Z,00000200,01000000,0000.70,0001.09,0000.26,0000.43,0000.15,0000.04,-004.71,-004.27,-002.84,16.5,23.5,,00.0,0627.3,30.9
2021-03-23T12:35:00Z,00000200,01000000,0000.59,0000.83,0000.24,0000.54,-000.09,-000.06,-001.20,-001.02,-000.88,16.5,23.5,,00.0,0627.3,30.9
2021-03-23T12:36:00Z,00000200,01000000,0001.20,0000.73,0000.05,-000.04,0000.18,-000.09,-000.49,-000.51,0000.04,16.4,23.4,,00.0,0627.3,30.8
2021-03-23T12:37:00Z,00000200,01000000,0000.62,0000.73,0000.28,-000.11,0000.07,0000.19,-000.45,-000.01,-000.12,16.3,23.4,,00.0,0627.3,30.8
2021-03-23T12:38:00Z,00000200,01000000,0001.31,0000.72,0000.36,0000.24,-000.08,-000.08,-000.68,-000.64,-000.77,16.2,23.3,,00.0,0627.3,30.8
2021-03-23T12:39:00Z,00000200,01000000,0000.51,0000.66,0000.35,0000.33,0000.11,-000.03,0000.00,0000.38,0000.19,16.2,23.3,,00.0,0627.3,30.8
2021-03-23T12:40:00Z,00000200,01000000,0000.67,0000.82,0000.49,0000.40,0000.14,-000.02,0000.68,0000.53,0000.61,16.2,23.3,,00.0,0627.3,30.8
2021-03-23T12:41:00Z,00000200,01000000,0000.73,0000.84,0000.51,-000.19,0000.25,-000.11,0000.34,0000.30,0000.42,16.2,23.3,,00.0,0627.3,30.8
2021-03-23T12:42:00Z,00000200,01000000,0001.44,0000.78,0000.67,0000.04,0000.29,0000.10,0000.18,0000.43,-000.02,16.3,23.3,,00.0,0627.3,30.9
2021-03-23T12:43:00Z,00000200,01000000,0001.17,0000.87,0000.43,-000.08,0000.23,0000.02,0000.37,0000.34,0000.54,16.4,23.3,,00.0,0627.3,30.9
2021-03-23T12:44:00Z,00000200,01000000,0001.14,0000.66,0000.47,-000.46,0000.05,0000.17,0000.65,0000.12,0000.44,16.4,23.4,,00.0,0627.3,30.9
2021-03-23T12:45:00Z,00000200,01000000,0000.92,0000.94,0000.57,0000.03,0000.19,-000.08,0000.57,0000.70,0000.17,16.5,23.4,,00.0,0627.3,30.9
2021-03-23T12:46:00Z,00000200,01000000,0001.56,0000.94,0000.32,-000.36,0000.09,-000.10,0000.41,0000.48,0000.42,16.6,23.5,,00.0,0627.3,30.9
2021-03-23T12:47:00Z,00000200,01000000,0001.38,0000.76,0000.40,-000.01,-000.18,-000.08,0000.29,0000.08,0000.27,16.7,23.5,,00.0,0627.3,30.9
2021-03-23T12:48:00Z,00000200,01000000,0000.52,0000.87,0000.46,-000.01,0000.10,0000.02,-000.02,0000.35,0000.04,16.7,23.6,,00.0,0627.3,31.0
2021-03-23T12:49:00Z,00000200,01000000,0001.74,0000.76,0000.68,-000.07,0000.00,0000.09,0000.05,0000.05,0000.02,16.8,23.6,,00.0,0627.4,31.0
2021-03-23T12:50:00Z,00000200,01000000,0001.72,0000.69,0000.53,-000.05,0000.21,0000.08,0000.18,0000.07,-000.03,16.8,23.6,,00.0,0627.4,30.9
2021-03-23T12:51:00Z,00000200,01000000,0000.95,0000.79,0000.53,0000.28,0000.21,0000.11,0000.63,0000.50,0000.30,16.8,23.6,,00.0,0627.3,30.9
2021-03-23T12:52:00Z,00000200,01000000,0001.28,0000.58,0000.41,-000.32,0000.18,0000.18,0000.31,0000.40,0000.17,16.7,23.6,,00.0,0627.4,30.9
2021-03-23T12:53:00Z,00000200,01000000,0001.28,0000.93,0000.18,-000.08,0000.15,0000.08,-000.30,-000.22,0000.15,16.7,23.5,,00.0,0627.4,30.9
2021-03-23T12:54:00Z,00000200,01000000,0001.61,0000.91,0000.08,-000.27,0000.11,0000.13,0000.55,0000.54,0000.43,16.6,23.5,,00.0,0627.4,30.9
2021-03-23T12:55:00Z,00000200,01000000,0001.35,0000.57,0000.63,-000.45,0000.10,-000.15,0000.47,0000.35,0000.16,16.6,23.5,,00.0,0627.4,30.9
2021-03-23T12:56:00Z,00000200,01000000,0001.21,0000.53,0000.33,0000.04,0000.18,-000.07,0000.73,0000.47,0000.87,16.6,23.5,,00.0,0627.4,30.9
2021-03-23T12:57:00Z,00000200,41000000,,,,,,,0000.44,0000.41,0000.24,16.7,23.6,,00.0,0627.4,30.9
2021-03-23T12:58:00Z,00000200,61000000,,,,,,,-000.29,-000.27,-000.83,16.5,23.7,,00.0,0626.4,31.0
2021-03-23T12:59:00Z,00000200,21000000,,,,,,,0000.05,0000.36,0000.25,16.5,23.8,,00.0,0626.4,31.0
